FW9150 Weather Reports


time (UTC)temp
C
wind
direction
speed
KPH
gust
KPH
rain 1hr
cm
rain 24hr
cm
rain mn
cm
humidity
%
barometer
mb
20260831052603 13 157 0.0 0.0 0.00 0.00 0.00 62 1021.6
20260831050702 13 157 0.0 0.0 0.00 0.00 0.00 61 1021.6
20260831044802 13 157 0.0 0.0 0.00 0.00 0.00 59 1021.8
20260831042918 13 157 0.0 0.0 0.00 0.00 0.00 59 1021.6
20260831041904 14 157 0.0 0.0 0.00 0.00 0.00 58 1021.7
20260831040905 14 157 0.0 0.0 0.00 0.00 0.00 57 1021.5
20260831035906 15 157 0.0 0.0 0.00 0.00 0.00 57 1021.4
20260831035004 15 157 0.0 0.0 0.00 0.00 0.00 57 1021.4
20260831033103 15 157 0.0 0.0 0.00 0.00 0.00 54 1021.4
20260831032104 16 157 0.0 0.0 0.00 0.00 0.00 54 1021.4
20260831031105 16 157 0.0 0.0 0.00 0.00 0.00 54 1021.4
20260831030118 16 157 0.0 0.0 0.00 0.00 0.00 52 1021.3
20260831030003 16 157 0.0 0.0 0.00 0.00 0.00 52 1021.2
20260831025004 17 157 0.0 0.0 0.00 0.00 0.00 51 1021.2
20260831024005 17 157 0.0 0.0 0.00 0.00 0.00 49 1021.3
20260831023005 17 157 0.0 0.0 0.00 0.00 0.00 49 1021.2
20260831022021 18 157 0.0 0.0 0.00 0.00 0.00 48 1021.2
20260831020104 18 157 0.0 0.0 0.00 0.00 0.00 46 1021.1
20260831015202 19 157 0.0 0.0 0.00 0.00 0.00 44 1021.3
20260831014204 20 157 0.0 0.0 0.00 0.00 0.00 44 1021.2
20260831013205 20 157 0.0 0.0 0.00 0.00 0.00 43 1021.2
20260831011303 20 157 0.0 3.2 0.00 0.00 0.00 40 1021.2
20260831010304 21 157 0.0 0.0 0.00 0.00 0.00 39 1021.1
20260831005306 21 135 3.2 4.8 0.00 0.00 0.00 39 1021.2
20260831004402 21 202 0.0 0.0 0.00 0.00 0.00 38 1021.2
20260831003403 21 225 3.2 6.4 0.00 0.00 0.00 37 1021.1
20260831002407 22 163 1.6 6.4 0.00 0.00 0.00 37 1021.1
20260831001503 22 225 0.0 1.6 0.00 0.00 0.00 37 1021.1
20260831000504 22 202 0.0 0.0 0.00 0.00 0.00 36 1021.1
20260830234505 22 157 0.0 0.0 0.00 0.00 0.00 36 1021.1
20260830233506 22 247 3.2 4.8 0.00 0.00 0.00 34 1021.1
20260830231605 23 157 1.6 4.8 0.00 0.00 0.00 35 1021.2
20260830230703 23 135 0.0 1.6 0.00 0.00 0.00 35 1021.3
20260830225802 23 174 1.6 1.6 0.00 0.00 0.00 35 1021.3
20260830224805 23 205 1.6 4.8 0.00 0.00 0.00 35 1021.3
20260830223806 23 176 0.0 4.8 0.00 0.00 0.00 36 1021.2
20260830222804 23 173 0.0 4.8 0.00 0.00 0.00 35 1021.4
20260830221903 23 295 0.0 1.6 0.00 0.00 0.00 35 1021.4
20260830220905 23 174 0.0 4.8 0.00 0.00 0.00 36 1021.4
20260830215003 23 173 1.6 4.8 0.00 0.00 0.00 36 1021.7
20260830214005 23 166 3.2 8.0 0.00 0.00 0.00 35 1021.7
20260830213018 23 234 4.8 11.3 0.00 0.00 0.00 35 1021.9
20260830212004 24 180 1.6 3.2 0.00 0.00 0.00 33 1021.9
20260830211018 24 281 1.6 4.8 0.00 0.00 0.00 29 1021.9
20260830210020 24 112 0.0 0.0 0.00 0.00 0.00 28 1022.1
20260830205105 25 223 4.8 8.0 0.00 0.00 0.00 27 1022.0
20260830204104 24 157 0.0 3.2 0.00 0.00 0.00 28 1021.9
20260830204005 24 157 0.0 1.6 0.00 0.00 0.00 27 1021.9
20260830203102 23 120 0.0 3.2 0.00 0.00 0.00 25 1021.9
20260830202105 23 161 1.6 6.4 0.00 0.00 0.00 26 1021.9
20260830201104 23 175 6.4 9.7 0.00 0.00 0.00 28 1022.1
20260830200103 23 140 4.8 9.7 0.00 0.00 0.00 30 1021.9
20260830195202 23 152 4.8 8.0 0.00 0.00 0.00 29 1022.1
20260830194203 23 146 3.2 6.4 0.00 0.00 0.00 30 1022.3
20260830193202 22 159 1.6 4.8 0.00 0.00 0.00 31 1022.3
20260830192205 22 225 3.2 6.4 0.00 0.00 0.00 32 1022.2
20260830191302 23 209 4.8 6.4 0.00 0.00 0.00 34 1022.3
20260830190302 22 290 1.6 6.4 0.00 0.00 0.00 35 1022.4
20260830185320 23 220 3.2 4.8 0.00 0.00 0.00 35 1022.5
20260830184402 23 162 4.8 6.4 0.00 0.00 0.00 34 1022.5
20260830183405 22 141 6.4 11.3 0.00 0.00 0.00 37 1022.7
20260830182424 22 225 3.2 3.2 0.00 0.00 0.00 37 1022.6
20260830181424 22 149 3.2 9.7 0.00 0.00 0.00 38 1022.7
20260830174424 20 157 1.6 4.8 0.00 0.00 0.00 43 1022.6
20260830173523 20 182 1.6 3.2 0.00 0.00 0.00 44 1022.7
20260830172524 20 150 4.8 6.4 0.00 0.00 0.00 43 1022.7
20260830171542 20 220 1.6 6.4 0.00 0.00 0.00 42 1022.5
20260830170524 20 225 1.6 6.4 0.00 0.00 0.00 43 1022.6
20260830165526 20 175 3.2 4.8 0.00 0.00 0.00 42 1022.4
20260830164623 21 156 4.8 8.0 0.00 0.00 0.00 43 1022.4
20260830163623 21 222 1.6 3.2 0.00 0.00 0.00 45 1022.3
20260830162625 20 157 0.0 1.6 0.00 0.00 0.00 47 1022.4
20260830161625 19 204 0.0 1.6 0.00 0.00 0.00 47 1022.6
20260830160625 18 174 4.8 6.4 0.00 0.00 0.00 48 1022.7
20260830155722 18 157 0.0 0.0 0.00 0.00 0.00 50 1022.6
20260830154723 16 161 1.6 3.2 0.00 0.00 0.00 52 1022.6
20260830153822 16 180 1.6 4.8 0.00 0.00 0.00 53 1022.8
20260830152825 15 45 0.0 0.0 0.00 0.00 0.00 54 1022.8
20260830151824 14 315 0.0 0.0 0.00 0.00 0.00 54 1022.7
20260830150922 13 315 0.0 0.0 0.00 0.00 0.00 54 1022.7
20260830145925 12 315 0.0 0.0 0.00 0.00 0.00 51 1022.7
20260830144924 12 315 0.0 0.0 0.00 0.00 0.00 51 1022.7
20260830143924 12 315 0.0 0.0 0.00 0.00 0.00 49 1022.6
20260830143022 12 315 0.0 1.6 0.00 0.00 0.00 47 1022.6
20260830142122 12 315 0.0 0.0 0.00 0.00 0.00 44 1022.6
20260830140125 12 315 0.0 0.0 0.00 0.00 0.00 42 1022.4
20260830135222 12 315 0.0 0.0 0.00 0.00 0.00 42 1022.2
20260830134322 12 315 0.0 0.0 0.00 0.00 0.00 41 1022.2
20260830133323 11 315 0.0 0.0 0.00 0.00 0.00 40 1022.0
20260830132324 11 315 0.0 0.0 0.00 0.00 0.00 41 1021.9
20260830131324 11 315 0.0 0.0 0.00 0.00 0.00 40 1021.8
20260830130324 12 315 0.0 0.0 0.00 0.00 0.00 38 1021.7
20260830125325 12 315 0.0 0.0 0.00 0.00 0.00 38 1021.8
20260830124325 12 315 0.0 0.0 0.00 0.00 0.00 38 1021.6
20260830123325 12 315 0.0 0.0 0.00 0.00 0.00 38 1021.5
20260830122423 12 315 0.0 0.0 0.00 0.00 0.00 37 1021.5
20260830120424 12 315 0.0 0.0 0.00 0.00 0.00 38 1021.6
20260830115424 13 315 0.0 0.0 0.00 0.00 0.00 35 1021.6
20260830114425 13 315 0.0 0.0 0.00 0.00 0.00 35 1021.7
20260830113423 13 315 0.0 0.0 0.00 0.00 0.00 34 1021.8
20260830111424 13 315 0.0 0.0 0.00 0.00 0.00 34 1021.8
20260830110423 13 315 0.0 1.6 0.00 0.00 0.00 32 1021.6
20260830105425 13 315 1.6 3.2 0.00 0.00 0.00 35 1021.6
20260830104424 13 315 0.0 0.0 0.00 0.00 0.00 35 1021.6
20260830103423 13 315 0.0 0.0 0.00 0.00 0.00 36 1021.6
20260830102424 13 315 0.0 0.0 0.00 0.00 0.00 38 1021.7
20260830100422 14 315 0.0 0.0 0.00 0.00 0.00 39 1021.8
20260830095424 15 315 0.0 0.0 0.00 0.00 0.00 40 1021.8
20260830094424 15 315 0.0 1.6 0.00 0.00 0.00 42 1021.9
20260830093423 14 360 0.0 0.0 0.00 0.00 0.00 41 1021.7
20260830091524 14 337 0.0 0.0 0.00 0.00 0.00 46 1022.0
20260830090525 14 315 0.0 0.0 0.00 0.00 0.00 48 1022.1
20260830085524 14 315 0.0 1.6 0.00 0.00 0.00 50 1022.1
20260830084522 14 315 0.0 0.0 0.00 0.00 0.00 52 1022.1
20260830083524 14 315 0.0 0.0 0.00 0.00 0.00 53 1022.2
20260830082623 14 315 0.0 0.0 0.00 0.00 0.00 54 1022.3
20260830081625 14 315 0.0 1.6 0.00 0.00 0.00 54 1022.4
20260830080722 14 315 0.0 0.0 0.00 0.00 0.00 56 1022.4
20260830075722 13 315 0.0 0.0 0.00 0.00 0.00 57 1022.4
20260830074725 13 315 0.0 0.0 0.00 0.00 0.00 57 1022.6
20260830073822 13 315 0.0 0.0 0.00 0.00 0.00 57 1022.4
20260830072825 13 315 0.0 0.0 0.00 0.00 0.00 58 1022.4
20260830071922 13 315 0.0 0.0 0.00 0.00 0.00 59 1022.4
20260830070924 12 315 0.0 0.0 0.00 0.00 0.00 61 1022.6
20260830065926 12 258 0.0 0.0 0.00 0.00 0.00 61 1022.6
20260830064927 12 247 0.0 0.0 0.00 0.00 0.00 62 1022.7
20260830063927 12 247 0.0 0.0 0.00 0.00 0.00 60 1022.6
20260830062928 13 247 0.0 0.0 0.00 0.00 0.00 59 1022.8
20260830061928 13 180 0.0 0.0 0.00 0.00 0.00 57 1022.8
20260830060928 14 247 0.0 0.0 0.00 0.00 0.00 58 1022.7
20260830055928 14 247 0.0 0.0 0.00 0.00 0.00 56 1022.7
20260830053927 13 247 0.0 0.0 0.00 0.00 0.00 57 1022.7